KA8DUX-2 Weather Reports


Display with metric or nautical units.
time (UTC)temp
F
wind
direction
speed
MPH
gust
MPH
rain 1hr
in
rain 24hr
in
rain mn
in
humidity
%
barometer
mb
20260510002017 59 59 1.0 1.0 0.00 0.00 0.00 49 1005.2
20260510001515 59 304 3.0 5.0 0.00 0.00 0.00 49 1004.9
20260510001012 60 290 7.0 9.0 0.00 0.00 0.00 48 1005.0
20260510000507 60 168 4.0 8.0 0.00 0.00 0.00 48 1004.9
20260510000004 60 293 4.0 6.0 0.00 0.00 0.00 47 1005.0
20260509235501 60 297 5.0 7.0 0.00 0.00 0.00 47 1004.7
20260509234957 61 28 4.0 5.0 0.00 0.00 0.00 47 1004.7
20260509234454 61 14 4.0 6.0 0.00 0.00 0.00 45 1004.5
20260509233952 61 266 2.0 3.0 0.00 0.00 0.00 44 1004.5
20260509233449 61 312 1.0 2.0 0.00 0.00 0.00 44 1004.5
20260509232945 62 301 5.0 6.0 0.00 0.00 0.00 41 1004.2
20260509232443 61 134 1.0 2.0 0.00 0.00 0.00 39 1004.1
20260509231938 62 314 3.0 5.0 0.00 0.00 0.00 39 1004.0
20260509231435 62 339 1.0 2.0 0.00 0.00 0.00 39 1004.0
20260509230934 62 60 1.0 2.0 0.00 0.00 0.00 39 1004.0
20260509230430 62 260 3.0 3.0 0.00 0.00 0.00 39 1003.9
20260509225926 63 300 5.0 6.0 0.00 0.00 0.00 40 1003.7
20260509225423 64 151 3.0 3.0 0.00 0.00 0.00 43 1003.6
20260509224919 64 334 4.0 7.0 0.00 0.00 0.00 42 1003.5
20260509224414 65 255 2.0 2.0 0.00 0.00 0.00 42 1003.5
20260509223912 66 334 3.0 7.0 0.00 0.00 0.00 43 1003.3
20260509223408 67 75 0.0 1.0 0.00 0.00 0.00 43 1003.2
20260509222905 67 131 1.0 1.0 0.00 0.00 0.00 44 1003.0
20260509222401 66 169 1.0 1.0 0.00 0.00 0.00 45 1002.8
20260509221856 67 302 2.0 5.0 0.00 0.00 0.00 45 1002.7
20260509221353 67 190 2.0 2.0 0.00 0.00 0.00 45 1002.6
20260509220849 67 86 2.0 3.0 0.00 0.00 0.00 48 1002.7
20260509220345 67 223 1.0 2.0 0.00 0.00 0.00 46 1002.4
20260509215841 67 112 0.0 1.0 0.00 0.00 0.00 46 1002.3
20260509215338 67 132 3.0 3.0 0.00 0.00 0.00 48 1002.3
20260509214835 67 145 1.0 1.0 0.00 0.00 0.00 47 1002.3
20260509214332 67 244 1.0 2.0 0.00 0.00 0.00 48 1002.3
20260509213829 67 246 2.0 3.0 0.00 0.00 0.00 47 1002.1
20260509213324 68 232 5.0 7.0 0.00 0.00 0.00 44 1002.2
20260509212822 67 267 2.0 3.0 0.00 0.00 0.00 46 1002.2
20260509212320 67 279 3.0 5.0 0.00 0.00 0.00 47 1002.1
20260509211815 67 239 1.0 1.0 0.00 0.00 0.00 48 1002.2
20260509211311 67 198 4.0 5.0 0.00 0.00 0.00 46 1002.3
20260509210808 68 170 1.0 2.0 0.00 0.00 0.00 46 1002.3
20260509210306 67 209 3.0 3.0 0.00 0.00 0.00 46 1002.3
20260509205805 67 218 2.0 5.0 0.00 0.00 0.00 47 1002.3
20260509205300 67 135 3.0 5.0 0.00 0.00 0.00 47 1002.4
20260509204756 66 165 2.0 3.0 0.00 0.00 0.00 48 1002.2
20260509204253 68 135 3.0 5.0 0.00 0.00 0.00 46 1002.2
20260509203749 68 272 2.0 2.0 0.00 0.00 0.00 45 1002.0
20260509203247 68 149 1.0 2.0 0.00 0.00 0.00 48 1002.3
20260509202742 68 223 3.0 5.0 0.00 0.00 0.00 46 1002.2
20260509202238 68 274 5.0 8.0 0.00 0.00 0.00 48 1002.2
20260509201733 69 112 5.0 6.0 0.00 0.00 0.00 47 1002.3
20260509201230 69 262 2.0 2.0 0.00 0.00 0.00 49 1002.4
20260509200726 68 238 1.0 2.0 0.00 0.00 0.00 50 1002.4
20260509200221 67 227 1.0 2.0 0.00 0.00 0.00 52 1002.5
20260509195717 67 236 5.0 6.0 0.00 0.00 0.00 50 1002.5
20260509195212 68 162 5.0 8.0 0.00 0.00 0.00 51 1002.4
20260509194707 67 232 3.0 5.0 0.00 0.00 0.00 52 1002.3
20260509194204 66 195 3.0 3.0 0.00 0.00 0.00 52 1002.5
20260509193700 66 262 4.0 6.0 0.00 0.00 0.00 51 1002.3
20260509193155 66 277 3.0 6.0 0.00 0.00 0.00 53 1002.5
20260509192652 66 230 3.0 5.0 0.00 0.00 0.00 50 1002.5
20260509192147 66 18 3.0 6.0 0.00 0.00 0.00 54 1002.5
20260509191648 66 251 2.0 3.0 0.00 0.00 0.00 54 1002.3
20260509191144 66 150 2.0 3.0 0.00 0.00 0.00 56 1002.3
20260509190641 65 151 4.0 7.0 0.00 0.00 0.00 56 1002.4
20260509190138 65 134 2.0 2.0 0.00 0.00 0.00 57 1002.5
20260509185636 64 242 3.0 5.0 0.00 0.00 0.00 57 1002.4
20260509185131 64 139 1.0 3.0 0.00 0.00 0.00 57 1002.5
20260509184630 64 249 2.0 2.0 0.00 0.00 0.00 57 1002.3
20260509184126 63 276 5.0 7.0 0.00 0.00 0.00 59 1002.5
20260509183622 64 201 4.0 7.0 0.00 0.00 0.00 58 1002.2
20260509183118 64 100 2.0 2.0 0.00 0.00 0.00 58 1002.2
20260509182614 64 176 3.0 5.0 0.00 0.00 0.00 55 1002.3
20260509182111 63 114 5.0 8.0 0.00 0.00 0.00 55 1002.2
20260509181609 62 225 4.0 6.0 0.00 0.00 0.00 57 1002.1
20260509181106 62 197 0.0 1.0 0.00 0.00 0.00 58 1002.2
20260509180602 61 136 2.0 3.0 0.00 0.00 0.00 59 1002.2
20260509180100 61 69 0.0 0.0 0.00 0.00 0.00 60 1002.0
20260509175555 61 186 3.0 3.0 0.00 0.00 0.00 60 1002.2
20260509175052 61 159 3.0 3.0 0.00 0.00 0.00 61 1002.3
20260509174548 60 235 2.0 2.0 0.00 0.00 0.00 63 1002.3
20260509174043 59 188 2.0 2.0 0.00 0.00 0.00 67 1002.3
20260509173538 60 201 2.0 3.0 0.00 0.00 0.00 66 1002.4
20260509173034 59 218 1.0 1.0 0.00 0.00 0.00 69 1002.8
20260509172532 59 138 0.0 1.0 0.00 0.00 0.00 72 1003.3
20260509172027 58 233 1.0 1.0 0.00 0.00 0.00 69 1003.0
20260509171523 59 220 3.0 5.0 0.00 0.00 0.00 67 1003.2
20260509171021 59 207 3.0 3.0 0.00 0.00 0.00 68 1003.7
20260509170515 58 122 0.0 0.0 0.00 0.00 0.00 66 1003.2
20260509170012 58 162 1.0 1.0 0.00 0.00 0.00 65 1003.1
20260509165511 58 141 0.0 0.0 0.00 0.00 0.00 66 1003.1
20260509165006 58 350 1.0 1.0 0.00 0.00 0.00 67 1002.9
20260509164503 58 151 1.0 1.0 0.00 0.00 0.00 67 1003.1
20260509163958 58 112 1.0 2.0 0.00 0.00 0.00 68 1002.8
20260509163456 59 44 0.0 0.0 0.00 0.00 0.00 69 1002.7
20260509162955 58 140 1.0 1.0 0.00 0.00 0.00 70 1003.0
20260509162454 59 255 2.0 3.0 0.00 0.00 0.00 69 1003.0
20260509161950 59 269 4.0 6.0 0.00 0.00 0.00 69 1003.2
20260509161446 59 310 2.0 2.0 0.00 0.00 0.00 69 1002.8
20260509160941 60 171 1.0 2.0 0.00 0.00 0.00 70 1002.9
20260509160438 60 176 4.0 6.0 0.00 0.00 0.00 68 1002.8
20260509155933 61 280 6.0 9.0 0.00 0.00 0.00 67 1002.7
20260509155430 61 189 4.0 6.0 0.00 0.00 0.00 66 1002.6
20260509154926 61 120 3.0 5.0 0.00 0.00 0.00 67 1002.4
20260509154423 62 290 4.0 6.0 0.00 0.00 0.00 66 1002.3
20260509153920 63 310 5.0 8.0 0.00 0.00 0.00 65 1002.0
20260509153417 64 168 2.0 3.0 0.00 0.00 0.00 65 1001.8
20260509152914 65 307 2.0 2.0 0.00 0.00 0.00 63 1001.5
20260509152409 65 218 4.0 6.0 0.00 0.00 0.00 63 1001.4
20260509151907 64 274 5.0 7.0 0.00 0.00 0.00 65 1001.2
20260509151402 65 248 6.0 9.0 0.00 0.00 0.00 65 1001.0
20260509150901 64 155 3.0 5.0 0.00 0.00 0.00 65 1001.1
20260509150358 63 295 3.0 5.0 0.00 0.00 0.00 67 1001.2
20260509145856 64 208 5.0 7.0 0.00 0.00 0.00 66 1001.3
20260509145350 62 200 3.0 5.0 0.00 0.00 0.00 69 1001.0
20260509144847 63 246 4.0 5.0 0.00 0.00 0.00 68 1001.0
20260509144344 63 274 5.0 7.0 0.00 0.00 0.00 67 1000.7
20260509143841 62 235 5.0 7.0 0.00 0.00 0.00 69 1000.7
20260509143339 63 256 5.0 8.0 0.00 0.00 0.00 68 1000.9
20260509142834 63 211 2.0 2.0 0.00 0.00 0.00 69 1000.6
20260509142331 62 204 5.0 7.0 0.00 0.00 0.00 69 1001.0
20260509141827 63 234 5.0 7.0 0.00 0.00 0.00 68 1000.7
20260509141328 63 221 4.0 6.0 0.00 0.00 0.00 67 1000.9
20260509140820 63 247 4.0 6.0 0.00 0.00 0.00 67 1001.0
20260509140317 63 225 7.0 9.0 0.00 0.00 0.00 67 1000.9
20260509135816 63 237 3.0 3.0 0.00 0.00 0.00 68 1000.7
20260509135313 63 185 2.0 2.0 0.00 0.00 0.00 67 1000.9
20260509134810 63 231 7.0 13.0 0.00 0.00 0.00 67 1000.7
20260509134307 62 239 7.0 10.0 0.00 0.00 0.00 68 1000.4
20260509133804 62 105 3.0 6.0 0.00 0.00 0.00 68 1000.9
20260509133300 61 144 6.0 8.0 0.00 0.00 0.00 69 1000.6
20260509132759 62 140 4.0 9.0 0.00 0.00 0.00 68 1000.7
20260509132258 61 333 2.0 2.0 0.00 0.00 0.00 69 1000.7
20260509131754 60 70 0.0 1.0 0.00 0.00 0.00 72 1000.9
20260509131250 59 249 3.0 5.0 0.00 0.00 0.00 73 1000.9
20260509130747 60 186 3.0 5.0 0.00 0.00 0.00 73 1001.2
20260509130242 59 162 1.0 2.0 0.00 0.00 0.00 75 1001.2
20260509125739 58 128 1.0 1.0 0.00 0.00 0.00 76 1001.2
20260509125236 58 192 2.0 5.0 0.00 0.00 0.00 77 1001.2
20260509124732 57 115 1.0 2.0 0.00 0.00 0.00 79 1001.3
20260509124229 56 157 3.0 5.0 0.00 0.00 0.00 80 1001.4
20260509123727 57 162 5.0 6.0 0.00 0.00 0.00 79 1001.2
20260509123224 57 135 1.0 2.0 0.00 0.00 0.00 80 1001.0
20260509122720 56 174 4.0 7.0 0.00 0.00 0.00 82 1000.9
20260509122217 55 222 3.0 5.0 0.00 0.00 0.00 83 1000.7
20260509121714 55 153 2.0 2.0 0.00 0.00 0.00 84 1000.9
20260509121211 54 128 3.0 5.0 0.00 0.00 0.00 85 1000.9
20260509120710 53 167 4.0 6.0 0.00 0.00 0.00 87 1000.7
20260509120207 53 97 2.0 2.0 0.00 0.00 0.00 88 1000.4
20260509115704 53 136 0.0 0.0 0.00 0.00 0.00 88 1000.7
20260509115201 53 130 0.0 1.0 0.00 0.00 0.00 88 1001.1
20260509114700 53 99 3.0 3.0 0.00 0.00 0.00 88 1001.1
20260509114158 52 141 1.0 2.0 0.00 0.00 0.00 89 1001.0
20260509113656 52 197 3.0 5.0 0.00 0.00 0.00 89 1000.7
20260509113153 52 141 3.0 5.0 0.00 0.00 0.00 89 1000.9
20260509112650 52 190 3.0 5.0 0.00 0.00 0.00 90 1001.1
20260509112147 52 142 3.0 5.0 0.00 0.00 0.00 90 1001.1
20260509111644 52 148 1.0 2.0 0.00 0.00 0.00 90 1001.2
20260509111141 52 163 0.0 1.0 0.00 0.00 0.00 90 1001.2
20260509110638 52 145 2.0 2.0 0.00 0.00 0.00 90 1001.4
20260509110135 51 226 2.0 5.0 0.00 0.00 0.00 90 1001.5
20260509105633 51 214 1.0 2.0 0.00 0.00 0.00 90 1001.4
20260509105130 51 146 0.0 0.0 0.00 0.00 0.00 91 1001.6
20260509104627 51 149 0.0 1.0 0.00 0.00 0.00 91 1001.7
20260509104124 51 136 0.0 1.0 0.00 0.00 0.00 91 1001.5
20260509103622 51 182 3.0 3.0 0.00 0.00 0.00 91 1001.2
20260509103119 51 138 3.0 5.0 0.00 0.00 0.00 91 1001.5
20260509102617 51 114 2.0 3.0 0.00 0.00 0.00 91 1001.4
20260509102114 51 125 0.0 1.0 0.00 0.00 0.00 91 1001.5
20260509101609 51 142 3.0 5.0 0.00 0.00 0.00 91 1001.8
20260509101106 51 127 1.0 1.0 0.00 0.00 0.00 91 1002.0
20260509100604 51 159 2.0 2.0 0.00 0.00 0.00 91 1001.8
20260509095557 51 259 4.0 7.0 0.00 0.00 0.00 91 1001.7
20260509095055 51 233 3.0 5.0 0.00 0.00 0.00 90 1001.6
20260509094551 51 154 1.0 1.0 0.00 0.00 0.00 90 1001.7
20260509094049 51 153 0.0 2.0 0.00 0.00 0.00 90 1001.7
20260509093547 51 233 2.0 3.0 0.00 0.00 0.00 90 1001.6
20260509093044 51 223 1.0 2.0 0.00 0.00 0.00 90 1001.8
20260509092541 51 195 3.0 5.0 0.00 0.00 0.00 90 1001.8
20260509092040 51 221 1.0 2.0 0.00 0.00 0.00 90 1001.8
20260509091537 51 128 3.0 5.0 0.00 0.00 0.00 90 1002.0
20260509091034 51 126 0.0 1.0 0.00 0.00 0.00 90 1002.1
20260509090531 51 137 0.0 1.0 0.00 0.00 0.00 89 1002.1
20260509090029 51 149 1.0 1.0 0.00 0.00 0.00 88 1002.1
20260509085526 51 163 0.0 1.0 0.00 0.00 0.00 88 1002.1
20260509085022 52 125 0.0 1.0 0.00 0.00 0.00 88 1002.4
20260509084519 52 127 0.0 1.0 0.00 0.00 0.00 87 1002.0
20260509084016 52 143 1.0 2.0 0.00 0.00 0.00 87 1002.2
20260509083513 52 128 0.0 0.0 0.00 0.00 0.00 87 1002.6
20260509083010 52 214 1.0 2.0 0.00 0.00 0.00 86 1002.5
20260509082508 52 141 0.0 1.0 0.00 0.00 0.00 86 1002.8
20260509082004 51 118 0.0 1.0 0.00 0.00 0.00 86 1002.5
20260509081501 51 118 2.0 3.0 0.00 0.00 0.00 86 1002.7
20260509080958 51 181 0.0 0.0 0.00 0.00 0.00 85 1002.7
20260509080456 51 187 1.0 2.0 0.00 0.00 0.00 85 1002.8
20260509075954 51 148 0.0 0.0 0.00 0.00 0.00 84 1002.9
20260509075451 51 138 2.0 3.0 0.00 0.00 0.00 83 1002.8
20260509074949 51 132 0.0 1.0 0.00 0.00 0.00 82 1002.9
20260509074446 51 168 0.0 1.0 0.00 0.00 0.00 82 1002.9
20260509073942 51 187 0.0 1.0 0.00 0.00 0.00 81 1002.9
20260509073439 51 125 1.0 2.0 0.00 0.00 0.00 80 1003.0
20260509072935 51 219 3.0 3.0 0.00 0.00 0.00 79 1003.0
20260509072432 51 147 1.0 2.0 0.00 0.00 0.00 78 1003.3
20260509071929 51 238 1.0 3.0 0.00 0.00 0.00 77 1003.2
20260509071425 51 134 0.0 1.0 0.00 0.00 0.00 76 1003.4
20260509070923 52 140 0.0 1.0 0.00 0.00 0.00 75 1003.2
20260509070420 52 240 2.0 5.0 0.00 0.00 0.00 74 1003.4
20260509065915 52 225 1.0 2.0 0.00 0.00 0.00 73 1003.3
20260509065412 52 133 1.0 1.0 0.00 0.00 0.00 72 1003.3
20260509064908 53 131 0.0 0.0 0.00 0.00 0.00 71 1003.5
20260509064406 53 190 1.0 2.0 0.00 0.00 0.00 70 1003.6
20260509063903 53 98 0.0 1.0 0.00 0.00 0.00 70 1003.6
20260509063359 53 112 1.0 1.0 0.00 0.00 0.00 69 1003.8
20260509062856 53 133 1.0 1.0 0.00 0.00 0.00 68 1003.9
20260509062353 53 125 0.0 0.0 0.00 0.00 0.00 66 1003.7
20260509061851 52 145 1.0 1.0 0.00 0.00 0.00 63 1003.9
20260509061349 52 151 2.0 3.0 0.00 0.00 0.00 60 1003.5
20260509060845 52 137 0.0 0.0 0.00 0.00 0.00 54 1003.8
20260509060342 52 145 1.0 1.0 0.00 0.00 0.00 50 1003.7
20260509055837 51 145 0.0 0.0 0.00 0.00 0.00 46 1004.0
20260509055333 51 126 0.0 0.0 0.00 0.00 0.00 44 1004.0
20260509054831 51 135 0.0 0.0 0.00 0.00 0.00 43 1003.9
20260509054327 51 187 0.0 1.0 0.00 0.00 0.00 42 1004.2
20260509053826 51 130 0.0 0.0 0.00 0.00 0.00 41 1003.9
20260509053322 51 135 1.0 1.0 0.00 0.00 0.00 41 1003.9
20260509052821 51 150 0.0 0.0 0.00 0.00 0.00 42 1004.0
20260509052318 51 133 0.0 0.0 0.00 0.00 0.00 42 1003.7
20260509051815 51 134 3.0 5.0 0.00 0.00 0.00 40 1004.2
20260509051313 51 144 1.0 1.0 0.00 0.00 0.00 42 1003.9
20260509050809 51 135 0.0 0.0 0.00 0.00 0.00 41 1004.0
20260509050306 51 139 1.0 1.0 0.00 0.00 0.00 41 1004.2
20260509045803 51 135 0.0 0.0 0.00 0.00 0.00 42 1004.1
20260509045300 50 191 1.0 2.0 0.00 0.00 0.00 41 1004.2
20260509044757 49 192 2.0 3.0 0.00 0.00 0.00 43 1004.5
20260509044255 48 128 0.0 1.0 0.00 0.00 0.00 48 1004.3
20260509043751 47 127 0.0 0.0 0.00 0.00 0.00 51 1004.3
20260509043247 48 136 0.0 0.0 0.00 0.00 0.00 51 1004.4
20260509042743 47 134 0.0 0.0 0.00 0.00 0.00 51 1004.4
20260509042240 47 129 0.0 0.0 0.00 0.00 0.00 52 1004.4
20260509041737 47 129 0.0 0.0 0.00 0.00 0.00 50 1004.3
20260509041234 47 135 0.0 0.0 0.00 0.00 0.00 52 1004.3
20260509040732 47 132 0.0 0.0 0.00 0.00 0.00 53 1004.4
20260509040229 47 134 0.0 0.0 0.00 0.00 0.00 52 1004.6
20260509035725 47 131 0.0 0.0 0.00 0.00 0.00 51 1004.5
20260509035222 47 127 0.0 0.0 0.00 0.00 0.00 52 1004.7
20260509034719 47 129 0.0 0.0 0.00 0.00 0.00 52 1004.9
20260509034217 48 121 0.0 0.0 0.00 0.00 0.00 50 1004.8
20260509033714 48 132 0.0 0.0 0.00 0.00 0.00 52 1004.9
20260509033211 48 117 0.0 0.0 0.00 0.00 0.00 50 1004.8
20260509032708 48 125 0.0 0.0 0.00 0.00 0.00 49 1004.9
20260509032205 48 126 0.0 0.0 0.00 0.00 0.00 48 1004.8
20260509031703 49 117 0.0 0.0 0.00 0.00 0.00 49 1005.1
20260509031200 49 126 0.0 0.0 0.00 0.00 0.00 48 1004.9
20260509030658 49 117 0.0 0.0 0.00 0.00 0.00 47 1005.1
20260509030155 49 130 0.0 0.0 0.00 0.00 0.00 46 1005.2
20260509025651 49 125 0.0 0.0 0.00 0.00 0.00 44 1005.1
20260509025147 50 119 0.0 0.0 0.00 0.00 0.00 46 1005.3
20260509024642 50 126 0.0 0.0 0.00 0.00 0.00 48 1005.4
20260509024139 50 127 0.0 0.0 0.00 0.00 0.00 46 1005.4
20260509023637 50 130 0.0 0.0 0.00 0.00 0.00 46 1005.5
20260509023133 51 130 0.0 0.0 0.00 0.00 0.00 46 1005.4
20260509022629 50 127 0.0 0.0 0.00 0.00 0.00 45 1005.6
20260509022128 50 129 0.0 0.0 0.00 0.00 0.00 45 1005.4
20260509021624 51 125 0.0 0.0 0.00 0.00 0.00 45 1005.4
20260509021121 51 130 0.0 0.0 0.00 0.00 0.00 44 1005.4
20260509020620 51 126 0.0 0.0 0.00 0.00 0.00 46 1005.3
20260509020116 51 133 0.0 0.0 0.00 0.00 0.00 46 1005.4
20260509015615 51 133 0.0 0.0 0.00 0.00 0.00 43 1005.4
20260509015112 51 127 0.0 0.0 0.00 0.00 0.00 43 1005.2
20260509014608 52 128 0.0 0.0 0.00 0.00 0.00 43 1005.1
20260509014105 52 132 0.0 0.0 0.00 0.00 0.00 42 1005.3
20260509013602 53 133 0.0 0.0 0.00 0.00 0.00 41 1005.3
20260509013057 53 133 0.0 0.0 0.00 0.00 0.00 41 1005.3
20260509012555 53 129 0.0 0.0 0.00 0.00 0.00 40 1005.1
20260509012051 54 131 0.0 0.0 0.00 0.00 0.00 39 1005.2
20260509011549 54 132 0.0 0.0 0.00 0.00 0.00 38 1005.3
20260509011046 54 133 0.0 0.0 0.00 0.00 0.00 36 1005.1
20260509010544 55 129 0.0 0.0 0.00 0.00 0.00 37 1005.4
20260509010040 55 129 0.0 0.0 0.00 0.00 0.00 37 1005.2
20260509005538 56 129 0.0 0.0 0.00 0.00 0.00 35 1005.3
20260509005038 57 128 0.0 0.0 0.00 0.00 0.00 35 1005.1
20260509004536 58 129 0.0 0.0 0.00 0.00 0.00 33 1005.3
20260509004032 58 134 0.0 0.0 0.00 0.00 0.00 32 1005.3
20260509003531 59 137 0.0 0.0 0.00 0.00 0.00 31 1005.4
20260509003028 59 135 0.0 1.0 0.00 0.00 0.00 30 1005.2
20260509002525 59 188 0.0 0.0 0.00 0.00 0.00 29 1005.5